Regional Weather Roundup
Issued by NWS Newport/Morehead, NC

Current Version | Previous Version | Text Only | Print | Product List | Glossary On
Versions: 1 2 3 4 5 6 7 8 9 10 11 12 13 14 15 16 17 18 19 20 21 22 23 24 25 26 27 28 29 30 31 32 33 34 35 36 37 38 39 40 41 42 43 44 45 46 47 48 49 50
000
ASUS42 KMHX 212210
RWRMHX
WEATHER ROUNDUP FOR EASTERN NORTH CAROLINA
NATIONAL WEATHER SERVICE NEWPORT/MOREHEAD CITY NC
600 PM EDT THU AUG 21 2014

NOTE: "FAIR" INDICATES FEW OR NO CLOUDS BELOW 12,000 FEET
WITH NO SIGNIFICANT WEATHER AND/OR OBSTRUCTIONS TO VISIBILITY

NCZ015>017-031-032-045>047-102-103-212300-
NORTH COAST

CITY           SKY/WX    TMP DP  RH WIND       PRES   REMARKS
EDENTON        CLOUDY    87  74  64 NW3       30.01R
ELIZABETH CITY CLOUDY    85  76  74 E5        30.01R
KITTY HAWK     MOCLDY    85  73  67 CALM      29.99F
MANTEO         PTSUNNY   84  73  70 SW7       30.00F

$$

NCZ045>047-081-094-103-104-212300-
CENTRAL COAST

CITY           SKY/WX    TMP DP  RH WIND       PRES   REMARKS
FRISCO         CLOUDY    83  77  82 SW7       30.02S
SWANQUARTER      N/A     86 N/A N/A S3        29.97S

$$

NCZ095-097-098-100-101-212300-
SOUTHERN COAST

CITY           SKY/WX    TMP DP  RH WIND       PRES   REMARKS
BEAUFORT       PTSUNNY   86  72  62 W6        30.01F
CEDAR ISLAND     N/A     88 N/A N/A S7        30.06S
JACKSONVILLE   MOSUNNY   89  75  63 SW6       30.00S
NEWPORT        NOT AVBL
PINEY ISLAND   PTCLDY    88  76  67 S6        30.01S
WILMINGTON     PTSUNNY   87  72  60 W5        30.01F


$$

NCZ011>013-027>030-043-044-078>080-089-090>093-098-212300-
COASTAL PLAIN

CITY           SKY/WX    TMP DP  RH WIND       PRES   REMARKS
AHOSKIE        PTSUNNY   84  75  73 CALM      30.01S
CLINTON        MOSUNNY   91  73  55 NW3       30.02F
ELIZABETHTOWN  MOSUNNY   92  72  52 CALM      30.01F
GOLDSBORO      SUNNY     91  74  57 W8        30.00S HX 100
GREENVILLE     MOSUNNY   90  73  58 W3        30.02F
HAVELOCK       MOSUNNY   85  72  65 S3        30.02S
KENANSVILLE    SUNNY     90  65  43 NW3       30.02F
KINSTON        MOSUNNY   90  72  55 NW5       30.02F
NEW BERN       MOSUNNY   89  75  63 SW5       30.01F
RICHLANDS      MOSUNNY   91  72  52 NW3       30.01S
ROANOKE RAPIDS NOT AVBL
ROCKY MOUNT    MOSUNNY   89  71  55 W5        30.01F
WASHINGTON     PTSUNNY   88  74  61 N5        30.01S
WHITEVILLE     PTSUNNY   84  72  66 S3        30.02F

$$

AMZ130-135-150-152-154-156-158-170-250-252-270-ANZ085-086-088-633-658-670-212300-
MARINE OBSERVATIONS

STATION/POSITION TIME  TEMP    WIND        PRES    WAVE   SWELL
                       AIR SEA DIR/SP/G            HT/PER HT/PER
                 (UTC) (F)     (DEG/KT/KT) (MB)    (FT/S) (FT/S)
CHESAPEAKE LIGHT 2100   78      90/  6/  6 1016.8
BUOY 44014       2200   79 78  140/  6/  8 1015.9    2/ 7   2/ 7
DUCK             2200   83 78  140/  4/  4 1015.4
2E DUCK          2200                        N/A     2/ 7
OREGON INLET     2200   82 83  200/  8/ 10 1016.2
BUOY 44095       2200      80                N/A     2/ 7
20E OREGON INLET NOT AVBL
HATTERAS CG      2200   84 83  210/  7/  9 1017.0
DIAMOND BUOY     2200   82     200/  6/  8 1016.4    2/ 9   2/ 9
CAPE LOOKOUT     2100   83     210/  5/  7 1016.7
BEAUFORT LAB     2200   86 83  250/  4/  7 1015.9
30 SE NEW RIVER  2200   84 84  250/ 10/ 10 1015.9    2/ 5   2/ 5
5 SE WRIGHTSVILL 2200   81 83  260/  6/  8   N/A
BUOY 41002       2147   82 83  250/ 10/ 10 1018.6    2/ 5   2/ 5
BUOY 41004       2200   84 85  220/  4/  6 1016.3    2/ 5   2/ 5

$$


USA.gov is the U.S. government's official web portal to all federal, state and local government web resources and services.